Weather History for New Ulm, MN

Change the Weather History Date:

Saturday, March 16, 2013

  Actual Average Record
Temperature  
Mean Temperature 19 °F -  
Max Temperature 28 °F 40 °F 80 °F (2012)
Min Temperature 10 °F 22 °F -1 °F (1951)
Degree Days  
Heating Degree Days 46    
Moisture  
Dew Point 15 °F    
Average Humidity 80    
Maximum Humidity 93    
Minimum Humidity 68    
Precipitation  
Precipitation 0.00 in - - ()
Sea Level Pressure  
Sea Level Pressure 30.11 in    
Wind  
Wind Speed 10 mph (NNW)    
Max Wind Speed 18 mph    
Max Gust Speed 23 mph    
Visibility 10 miles    
Events Snow    
Averages and records for this station are not official NWS values.
T = Trace of Precipitation, MM = Missing Value Source: NWS Daily Summary

Daily Weather History Graph

Daily Weather History Graph

Search for Another Location

Airport:

Trip Planner

Search our weather history database for the weather conditions in past years. The results will help you decide how hot, cold, wet, or windy it might be!

Date:

Astronomy

Mar. 16, 2013 Rise Set
Actual Time 7:27 AM CDT 7:25 PM CDT
Civil Twilight 6:59 AM CDT 7:54 PM CDT
Nautical Twilight 6:25 AM CDT 8:28 PM CDT
Astronomical Twilight 5:50 AM CDT 9:03 PM CDT
Moon 9:46 AM CDT (3/16) No Moon Set
Length of Visible Light 12h 55m
Length of Day
11h 57m
Waxing Crescent, 23% of the Moon is Illuminated
Mar 16
Waxing Crescent
Mar 19
First Quarter
Mar 27
Full
Apr 2
Last Quarter
Apr 10
New

Hourly Weather History & Observations

Time (CDT) Temp. Windchill Dew Point Humidity Pressure Visibility Wind Dir Wind Speed Gust Speed Precip Events Conditions
12:32 AM 28.4 °F 21.2 °F 26.6 °F 93% 29.88 in 5.0 mi North 6.9 mph - N/A   Mostly Cloudy
12:53 AM 28.4 °F 19.7 °F 26.6 °F 93% 29.89 in 7.0 mi North 9.2 mph - N/A   Mostly Cloudy
1:13 AM 28.4 °F 19.7 °F 26.6 °F 93% 29.89 in 10.0 mi North 9.2 mph - N/A   Mostly Cloudy
1:32 AM 28.4 °F 21.2 °F 26.6 °F 93% 29.90 in 10.0 mi NNE 6.9 mph - N/A   Overcast
1:53 AM 28.4 °F 21.2 °F 24.8 °F 86% 29.91 in 10.0 mi NNE 6.9 mph - N/A   Overcast
2:13 AM 26.6 °F 17.5 °F 24.8 °F 93% 29.92 in 10.0 mi NNE 9.2 mph - N/A   Overcast
2:32 AM 26.6 °F 18.2 °F 24.8 °F 93% 29.92 in 10.0 mi North 8.1 mph - N/A   Overcast
2:53 AM 26.6 °F 17.5 °F 24.8 °F 93% 29.93 in 10.0 mi North 9.2 mph - N/A   Overcast
3:13 AM 26.6 °F 17.5 °F 24.8 °F 93% 29.94 in 10.0 mi North 9.2 mph 16.1 mph N/A   Overcast
3:53 AM 26.6 °F 19.1 °F 23.0 °F 86% 29.96 in 7.0 mi North 6.9 mph - N/A   Overcast
4:13 AM 24.8 °F 16.1 °F 23.0 °F 93% 29.97 in 10.0 mi North 8.1 mph - N/A   Overcast
4:33 AM 24.8 °F 15.3 °F 21.2 °F 86% 29.97 in 10.0 mi North 9.2 mph 16.1 mph N/A   Overcast
4:53 AM 24.8 °F 17.9 °F 21.2 °F 86% 29.99 in 10.0 mi North 5.8 mph - N/A   Overcast
5:33 AM 24.8 °F 16.1 °F 19.4 °F 80% 30.01 in 10.0 mi North 8.1 mph - N/A   Overcast
5:53 AM 24.8 °F 15.3 °F 19.4 °F 80% 30.02 in 10.0 mi North 9.2 mph - N/A   Overcast
6:12 AM 24.8 °F 16.9 °F 19.4 °F 80% 30.03 in 10.0 mi North 6.9 mph - N/A   Overcast
6:33 AM 23.0 °F 14.7 °F 19.4 °F 86% 30.04 in 10.0 mi North 6.9 mph 17.3 mph N/A   Mostly Cloudy
6:53 AM 21.2 °F 10.9 °F 15.8 °F 80% 30.06 in 10.0 mi North 9.2 mph 16.1 mph N/A   Scattered Clouds
7:12 AM 21.2 °F 12.6 °F 15.8 °F 80% 30.08 in 10.0 mi North 6.9 mph - N/A   Clear
7:33 AM 21.2 °F 10.9 °F 15.8 °F 80% 30.09 in 10.0 mi NNW 9.2 mph - N/A   Clear
7:53 AM 21.2 °F 9.5 °F 15.8 °F 80% 30.10 in 10.0 mi NNW 11.5 mph - N/A   Scattered Clouds
8:12 AM 21.2 °F 12.6 °F 15.8 °F 80% 30.10 in 10.0 mi North 6.9 mph - N/A   Overcast
8:33 AM 21.2 °F 13.6 °F 15.8 °F 80% 30.11 in 10.0 mi North 5.8 mph - N/A   Overcast
8:53 AM 21.2 °F 12.6 °F 15.8 °F 80% 30.12 in 10.0 mi North 6.9 mph - N/A   Overcast
9:12 AM 21.2 °F 13.6 °F 15.8 °F 80% 30.13 in 10.0 mi North 5.8 mph - N/A Snow Light Snow
9:33 AM 21.2 °F 14.9 °F 15.8 °F 80% 30.13 in 10.0 mi North 4.6 mph - N/A Snow Light Snow
9:53 AM 21.2 °F 10.1 °F 17.6 °F 86% 30.13 in 5.0 mi NNW 10.4 mph - N/A Snow Light Snow
10:12 AM 21.2 °F 7.8 °F 17.6 °F 86% 30.13 in 5.0 mi NW 15.0 mph - N/A Snow Light Snow
10:33 AM 21.2 °F 7.3 °F 15.8 °F 80% 30.14 in 10.0 mi NW 16.1 mph - N/A Snow Light Snow
10:53 AM 19.4 °F 6.0 °F 15.8 °F 86% 30.14 in 10.0 mi NW 13.8 mph - N/A Snow Light Snow
11:12 AM 19.4 °F 5.5 °F 15.8 °F 86% 30.15 in 10.0 mi WNW 15.0 mph - N/A Snow Light Snow
11:33 AM 19.4 °F 5.0 °F 14.0 °F 80% 30.15 in 10.0 mi NNW 16.1 mph - N/A Snow Light Snow
11:52 AM 19.4 °F 6.6 °F 14.0 °F 80% 30.15 in 10.0 mi NW 12.7 mph - N/A   Scattered Clouds
12:13 PM 19.4 °F 5.5 °F 14.0 °F 80% 30.15 in 10.0 mi NNW 15.0 mph - N/A   Clear
12:32 PM 19.4 °F 6.0 °F 14.0 °F 80% 30.16 in 10.0 mi NW 13.8 mph - N/A   Clear
12:53 PM 19.4 °F 6.6 °F 14.0 °F 80% 30.17 in 10.0 mi NW 12.7 mph 23.0 mph N/A   Clear
1:13 PM 19.4 °F 5.5 °F 14.0 °F 80% 30.17 in 10.0 mi NW 15.0 mph - N/A   Scattered Clouds
1:32 PM 19.4 °F 5.5 °F 14.0 °F 80% 30.18 in 10.0 mi NW 15.0 mph - N/A   Clear
1:53 PM 19.4 °F 6.0 °F 14.0 °F 80% 30.16 in 10.0 mi NNW 13.8 mph - N/A   Clear
2:13 PM 19.4 °F 5.5 °F 12.2 °F 74% 30.16 in 10.0 mi NNW 15.0 mph - N/A   Clear
2:32 PM 19.4 °F 4.5 °F 12.2 °F 74% 30.15 in 10.0 mi NNW 17.3 mph 20.7 mph N/A   Clear
2:53 PM 21.2 °F 8.3 °F 14.0 °F 74% 30.15 in 10.0 mi NNW 13.8 mph 17.3 mph N/A   Clear
3:13 PM 21.2 °F 6.4 °F 14.0 °F 74% 30.14 in 10.0 mi NNW 18.4 mph - N/A   Clear
3:32 PM 21.2 °F 8.3 °F 12.2 °F 68% 30.14 in 10.0 mi NNW 13.8 mph 18.4 mph N/A   Clear
3:53 PM 21.2 °F 9.5 °F 14.0 °F 74% 30.14 in 10.0 mi NNW 11.5 mph - N/A   Clear
4:13 PM 21.2 °F 7.8 °F 12.2 °F 68% 30.13 in 10.0 mi NNW 15.0 mph - N/A   Clear
4:32 PM 21.2 °F 10.9 °F 12.2 °F 68% 30.13 in 10.0 mi North 9.2 mph - N/A   Clear
4:53 PM 21.2 °F 7.3 °F 12.2 °F 68% 30.13 in 10.0 mi NNW 16.1 mph - N/A   Clear
5:13 PM 21.2 °F 8.9 °F 12.2 °F 68% 30.13 in 10.0 mi North 12.7 mph - N/A   Clear
5:32 PM 19.4 °F 6.0 °F 12.2 °F 74% 30.15 in 10.0 mi NNW 13.8 mph - N/A   Clear
5:53 PM 19.4 °F 6.6 °F 12.2 °F 74% 30.15 in 10.0 mi NW 12.7 mph - N/A   Clear
6:13 PM 19.4 °F 6.0 °F 10.4 °F 68% 30.16 in 10.0 mi NW 13.8 mph - N/A   Clear
6:33 PM 19.4 °F 5.5 °F 10.4 °F 68% 30.17 in 10.0 mi NW 15.0 mph - N/A   Clear
6:53 PM 17.6 °F 3.7 °F 10.4 °F 73% 30.18 in 10.0 mi NW 13.8 mph 18.4 mph N/A   Clear
7:13 PM 17.6 °F 2.7 °F 10.4 °F 73% 30.18 in 10.0 mi NW 16.1 mph - N/A   Clear
7:33 PM 15.8 °F 2.1 °F 10.4 °F 79% 30.19 in 10.0 mi NW 12.7 mph 19.6 mph N/A   Clear
7:53 PM 15.8 °F 0.9 °F 8.6 °F 73% 30.19 in 10.0 mi NW 15.0 mph - N/A   Clear
8:12 PM 15.8 °F 0.3 °F 8.6 °F 73% 30.19 in 10.0 mi NW 16.1 mph - N/A   Clear
8:33 PM 14.0 °F -3.0 °F 8.6 °F 79% 30.19 in 10.0 mi NW 18.4 mph - N/A   Clear
8:53 PM 14.0 °F -2.5 °F 8.6 °F 79% 30.21 in 10.0 mi NNW 17.3 mph - N/A   Clear
9:33 PM 12.2 °F -3.7 °F 6.8 °F 79% 30.22 in 10.0 mi NNW 15.0 mph 18.4 mph N/A   Clear
9:53 PM 12.2 °F -3.1 °F 5.0 °F 73% 30.23 in 10.0 mi NW 13.8 mph - N/A   Clear
10:12 PM 12.2 °F -3.1 °F 5.0 °F 73% 30.23 in 10.0 mi NW 13.8 mph - N/A   Clear
10:33 PM 12.2 °F -0.2 °F 5.0 °F 73% 30.24 in 10.0 mi NW 9.2 mph - N/A   Clear
10:53 PM 10.4 °F -5.4 °F 5.0 °F 79% 30.23 in 10.0 mi NNW 13.8 mph - N/A   Clear
11:12 PM 10.4 °F -2.4 °F 3.2 °F 73% 30.24 in 10.0 mi NW 9.2 mph - N/A   Clear
11:33 PM 10.4 °F -1.5 °F 3.2 °F 73% 30.25 in 10.0 mi NW 8.1 mph - N/A   Clear
11:53 PM 10.4 °F -2.4 °F 3.2 °F 73% 30.24 in 10.0 mi NNW 9.2 mph - N/A   Clear